Погода в Транге

Таиланд     7°33′43″N   99°36′34″E
темп.,
°C
ветер,
м/с
пор.,
м/с
влажн.,
%
обл.,
%
осадки,
мм/ч
давл.,
гПа
погр.,
м
25 октября, пн
пн2501:00+23св119691 2.3 101115
04:00+23ссв119720 0.0 100921
07:00+24св119630 0.0 101164
10:00+30всв126774 0.0 1011900
13:00+30св126896 1.8 10081081
16:00+29всв137859 2.6 1006839
19:00+25вюв1192100 3.9 100813
22:00+24всв1196100 0.0 101118
26 октября, вт
вт2601:00+24всв119674 0.0 100913
04:00+23ссв119876 0.0 100818
07:00+24ссв1296100 0.0 100988
10:00+30св2366100 0.0 1011991
13:00+33св135472 0.1 10081718
16:00+28в137936 1.3 1006211
19:00+25всв11905 1.9 100821
22:00+24св1194100 0.0 101031
27 октября, ср
ср2701:00+24св119692 0.0 100931
04:00+23св1198100 2.4 100847
07:00+24ссв149695 3.3 1010142
10:00+30всв1368100 0.6 1011905
13:00+31в136691 1.2 10071028
16:00+28юв1283100 4.2 1006469
19:00+25в019399 6.0 100813
22:00+24св119672 0.0 101021
28 октября, чт
чт2801:00+24св129788 0.1 100948
04:00+23ссв1198100 0.9 100827
07:00+24всв119617 1.2 101052
10:00+28юв117951 2.6 1012601
13:00+33ююв1156100 2.9 10081517
16:00+27ююз1286100 1.9 1007200
19:00+25юв119381 3.9 100913
22:00+24всв1196100 1.3 101142
29 октября, пт
пт2901:00+24св1197100 1.4 101023
04:00+23св1197100 0.1 100919
07:00+24ссв1297100 2.9 101172
10:00+30св1269100 0.1 1012737
13:00+30вюв127698 2.7 1009895
16:00+29вюв1284100 4.7 1008494
19:00+25вюв119456 9.1 101015
22:00+24всв1297100 0.2 101245